Date String (YYYY-MM-DD hh:mm:ss) UTC,Instrument flags,Ambient pressure (hPa),Sample flow (lpm),Bypass flow (lpm),Sample temperature (°C),Ambient temperature (°C),ASC tube jacket temperature (°C),LED temperature (°C),Box temperature (°C),Sample RH (%),Span deviation,Mass concentration (μg/m³),Mass concentration (μg/m³),Mass concentration (μg/m³)
DateTimeUTC,F1_M11,P_M11,Q1_M11,Q2_M11,T1_M11,T2_M11,T3_M11,T4_M11,T5_M11,U1_M11,ZSPAN_M11,X0_M11,X2_M11,X1_M11
2021-12-24 03:00:00,,0812.0,5.00,0.00,23.6,22.9,00.0,32.8,25.2,21.1,0000.0,0002.28,0000.19,0000.13
2021-12-24 03:01:00,,0811.9,5.00,0.00,23.6,22.9,00.0,32.8,25.2,21.0,0000.0,0001.94,0000.19,0000.13
2021-12-24 03:02:00,,0811.8,5.01,0.00,23.6,22.8,00.0,32.8,25.2,21.0,0000.0,0001.11,0000.19,0000.13
2021-12-24 03:03:00,,0812.0,5.00,0.00,23.6,22.8,00.0,32.8,25.2,20.8,0000.0,0001.10,0000.18,0000.12
2021-12-24 03:04:00,,0812.0,4.98,0.00,23.6,22.8,00.0,32.8,25.2,20.9,0000.0,0001.07,0000.16,0000.12
2021-12-24 03:05:00,,0811.9,5.00,0.00,23.6,22.8,00.0,32.7,25.2,20.9,0000.0,0001.08,0000.17,0000.13
2021-12-24 03:06:00,,0811.8,5.01,0.00,23.6,22.8,00.0,32.7,25.2,20.8,0000.0,0000.96,0000.16,0000.13
2021-12-24 03:07:00,,0811.8,4.99,0.00,23.6,22.8,00.0,32.7,25.1,20.7,0000.0,0000.21,0000.15,0000.12
2021-12-24 03:08:00,,0811.8,4.99,0.00,23.6,22.8,00.0,32.7,25.1,20.7,0000.0,0000.24,0000.17,0000.12
2021-12-24 03:09:00,,0811.7,5.01,0.00,23.6,22.8,00.0,32.7,25.2,20.9,0000.0,0000.30,0000.18,0000.12
2021-12-24 03:10:00,,0811.6,5.00,0.00,23.6,22.8,00.0,32.7,25.1,20.8,0000.0,0000.31,0000.19,0000.12
2021-12-24 03:11:00,,0811.6,5.00,0.00,23.5,22.8,00.0,32.7,25.1,20.7,0000.0,0000.29,0000.18,0000.13
2021-12-24 03:12:00,,0811.6,4.99,0.00,23.5,22.8,00.0,32.7,25.1,20.6,0000.0,0000.42,0000.19,0000.13
2021-12-24 03:13:00,,0811.6,5.02,0.00,23.5,22.7,00.0,32.7,25.1,20.5,0000.0,0000.54,0000.20,0000.13
2021-12-24 03:14:00,,0811.6,5.00,0.00,23.5,22.7,00.0,32.7,25.1,20.5,0000.0,0000.54,0000.20,0000.13
2021-12-24 03:15:00,,0811.6,5.00,0.00,23.5,22.8,00.0,32.7,25.1,20.4,0000.0,0000.54,0000.20,0000.13
2021-12-24 03:16:00,,0811.6,5.00,0.00,23.5,22.8,00.0,32.6,25.1,20.5,0000.0,0000.54,0000.20,0000.13
2021-12-24 03:17:00,,0811.6,5.00,0.00,23.5,22.8,00.0,32.6,25.1,20.4,0000.0,0000.55,0000.20,0000.13
2021-12-24 03:18:00,,0811.5,5.01,0.00,23.5,22.8,00.0,32.6,25.1,20.4,0000.0,0000.56,0000.21,0000.13
2021-12-24 03:19:00,,0811.5,4.98,0.00,23.5,22.8,00.0,32.6,25.1,20.4,0000.0,0000.55,0000.19,0000.13
2021-12-24 03:20:00,,0811.6,5.01,0.00,23.5,22.8,00.0,32.6,25.1,20.5,0000.0,0000.49,0000.17,0000.13
2021-12-24 03:21:00,,0811.5,5.00,0.00,23.5,22.8,00.0,32.6,25.1,20.4,0000.0,0000.47,0000.16,0000.12
2021-12-24 03:22:00,,0811.6,4.98,0.00,23.5,22.8,00.0,32.6,25.1,20.4,0000.0,0000.46,0000.16,0000.12
2021-12-24 03:23:00,,0811.6,5.01,0.00,23.5,22.8,00.0,32.6,25.1,20.4,0000.0,0000.41,0000.15,0000.11
2021-12-24 03:24:00,,0811.5,5.01,0.00,23.5,22.8,00.0,32.6,25.1,20.4,0000.0,0000.30,0000.15,0000.11
2021-12-24 03:25:00,,0811.5,5.00,0.00,23.5,22.9,00.0,32.6,25.1,20.4,0000.0,0000.31,0000.15,0000.11
2021-12-24 03:26:00,,0811.5,4.99,0.00,23.5,22.9,00.0,32.6,25.2,20.4,0000.0,0000.31,0000.16,0000.11
2021-12-24 03:27:00,,0811.6,5.00,0.00,23.6,22.9,00.0,32.6,25.2,20.3,0000.0,0000.33,0000.16,0000.11
2021-12-24 03:28:00,,0811.5,4.99,0.00,23.6,22.9,00.0,32.6,25.2,20.3,0000.0,0000.34,0000.16,0000.11
2021-12-24 03:29:00,,0811.5,5.01,0.00,23.6,22.9,00.0,32.6,25.2,20.3,0000.0,0000.35,0000.18,0000.10
2021-12-24 03:30:00,,0811.5,4.99,0.00,23.6,22.9,00.0,32.6,25.2,20.4,0000.0,0000.33,0000.17,0000.10
2021-12-24 03:31:00,,0811.4,5.00,0.00,23.6,22.9,00.0,32.6,25.2,20.4,0000.0,0000.72,0000.18,0000.11
2021-12-24 03:32:00,,0811.5,5.02,0.00,23.6,22.9,00.0,32.6,25.3,20.4,0000.0,0001.37,0000.19,0000.11
2021-12-24 03:33:00,,0811.5,4.98,0.00,23.6,23.0,00.0,32.6,25.3,20.4,0000.0,0001.38,0000.20,0000.12
2021-12-24 03:34:00,,0811.5,5.00,0.00,23.7,23.0,00.0,32.6,25.4,20.4,0000.0,0001.32,0000.19,0000.12
2021-12-24 03:35:00,,0811.5,5.02,0.00,23.7,23.0,00.0,32.6,25.4,20.4,0000.0,0001.29,0000.19,0000.13
2021-12-24 03:36:00,,0811.5,4.99,0.00,23.7,23.0,00.0,32.7,25.4,20.4,0000.0,0001.28,0000.18,0000.13
2021-12-24 03:37:00,,0811.6,5.00,0.00,23.7,23.0,00.0,32.7,25.4,20.5,0000.0,0001.29,0000.19,0000.13
2021-12-24 03:38:00,,0811.6,5.01,0.00,23.7,23.0,00.0,32.7,25.5,20.6,0000.0,0001.39,0000.21,0000.14
2021-12-24 03:39:00,,0811.6,5.00,0.00,23.7,23.0,00.0,32.7,25.5,20.6,0000.0,0001.38,0000.20,0000.15
2021-12-24 03:40:00,,0811.6,5.01,0.00,23.7,23.0,00.0,32.7,25.5,20.7,0000.0,0001.36,0000.19,0000.15
2021-12-24 03:41:00,,0811.5,4.99,0.00,23.7,23.0,00.0,32.7,25.5,20.7,0000.0,0001.37,0000.20,0000.16
2021-12-24 03:42:00,,0811.4,5.00,0.00,23.8,23.1,00.0,32.7,25.5,20.7,0000.0,0001.23,0000.23,0000.17
2021-12-24 03:43:00,,0811.4,5.00,0.00,23.8,23.0,00.0,32.7,25.5,20.7,0000.0,0000.41,0000.24,0000.18
2021-12-24 03:44:00,,0811.3,5.00,0.00,23.8,23.0,00.0,32.7,25.5,20.7,0000.0,0000.41,0000.24,0000.18
2021-12-24 03:45:00,,0811.3,5.01,0.00,23.8,23.1,00.0,32.8,25.5,20.7,0000.0,0000.41,0000.24,0000.18
2021-12-24 03:46:00,,0811.4,5.00,0.00,23.8,23.1,00.0,32.8,25.5,20.6,0000.0,0000.45,0000.26,0000.19
2021-12-24 03:47:00,,0811.5,4.99,0.00,23.8,23.1,00.0,32.8,25.6,20.6,0000.0,0000.49,0000.28,0000.20
2021-12-24 03:48:00,,0811.4,5.00,0.00,23.8,23.1,00.0,32.8,25.5,20.6,0000.0,0000.57,0000.31,0000.21
2021-12-24 03:49:00,,0811.3,5.00,0.00,23.9,23.1,00.0,32.8,25.5,20.6,0000.0,0000.50,0000.32,0000.21
2021-12-24 03:50:00,,0811.3,5.01,0.00,23.9,23.1,00.0,32.8,25.6,20.6,0000.0,0000.54,0000.34,0000.22
2021-12-24 03:51:00,,0811.3,5.00,0.00,23.9,23.1,00.0,32.8,25.6,20.6,0000.0,0000.55,0000.35,0000.23
2021-12-24 03:52:00,,0811.3,4.99,0.00,23.9,23.2,00.0,32.8,25.6,20.6,0000.0,0000.54,0000.35,0000.23
2021-12-24 03:53:00,,0811.3,5.00,0.00,23.9,23.2,00.0,32.8,25.6,20.5,0000.0,0000.55,0000.34,0000.23
2021-12-24 03:54:00,,0811.3,5.02,0.00,23.9,23.2,00.0,32.9,25.6,20.4,0000.0,0000.59,0000.35,0000.25
2021-12-24 03:55:00,,0811.2,5.00,0.00,23.9,23.2,00.0,32.9,25.6,20.3,0000.0,0000.62,0000.37,0000.25
2021-12-24 03:56:00,,0811.2,5.00,0.00,23.9,23.2,00.0,32.9,25.6,20.1,0000.0,0000.62,0000.37,0000.25
2021-12-24 03:57:00,,0811.2,4.99,0.00,23.9,23.2,00.0,32.9,25.6,20.0,0000.0,0000.63,0000.37,0000.26
2021-12-24 03:58:00,,0811.2,5.02,0.00,23.9,23.2,00.0,32.9,25.6,19.8,0000.0,0000.60,0000.35,0000.25
2021-12-24 03:59:00,,0811.3,5.00,0.00,23.9,23.2,00.0,32.9,25.6,19.7,0000.0,0000.53,0000.33,0000.25
